SCP
0 0 -0 -0 -0 -0 0 0 0 0 0 0 0 0 0 0 0 0 0 0 0 0 0 0 0 0 0 0 0 0 0 0 0 0 0 0 0 -0 -0 -0 -0 -0 0
0 0 0 0 -0 0 0 0 0 0 0 0 0 0 0 0 0 0 0 0 0 0 0 0 0 0 0 0 0 0 0 0 0 0 0 0 0 0 0 -0 -0 -0 0
0 0 0 0 0 0 0 0 0 0 0 0 0 0 0 0 0 0 0 0 0 0 0 0 0 0 0 0 0 0 0 0 0 0 0 0 0 0 0 -0 -0 -0 -0
0 0 0 0 0 0 0 0 0 0 0 0 0 0 0 0 0 0 0 0 0 0 0 0 0 0 0 0 0 0 0 0 0 0 0 0 0 0 0 -0 -0 -0 -0
0 0 0 0 0 0 0 0 0 0 0 0 0 0 0 0 0 0 0 0 0 0 0 0 0 0 0 0 0 0 0 0 0 0 0 0 0 0 0 -0 -0 0 0
0 0 0 0 0 0 0 0 0 0 0 0 0 0 0 0 0 0 0 0 0 0 0 0 0 0 0 0 0 0 0 0 0 0 0 0 0 0 0 0 0 0 0
0 0 0 0 0 0 0 0 0 0 0 0 0 0 0 0 0 0 0 0 0 0 0 0 0 0 0 0 0 0 0 0 0 0 0 0 0 0 0 0 0 0 0
0 0 0 0 0 0 0 0 0 0 0 0 0 0 0 0 0 0 0 0 0 0 0 0 0 0 0 0 0 -0 0 0 0 0 0 0 0 0 0 0 0 0 0
0 0 -0 -0 0 0 0 0 0 0 0 0 0 0 0 0 0 0 0 0 0 0 0 0 0 0 0 0 0 0 0 0 0 0 0 0 0 0 0 0 0 0 0
0 0 0 -0 -0 -0 0 0 0 0 0 0 0 0 0 0 0 0 0 0 0 0 0 0 0 0 0 0 0 0 0 0 0 0 0 0 0 0 0 0 0 0 0
0 0 0 0 0 -0 -0 0 0 0 0 0 0 0 0 0 0 0 0 0 0 0 0 0 0 0 0 0 0 0 0 0 0 0 0 0 0 0 0 0 0 0 0
0 0 0 0 0 0 0 -0 -0 -0 0 0 0 0 0 0 0 0 0 0 0 0 0 0 0 0 0 0 0 0 0 0 0 0 0 0 0 0 0 0 0 0 0
0 0 0 0 0 0 0 -0 -0 -0 -0 0 0 0 0 0 0 0 0 0 0 0 0 0 0 0 0 0 0 0 0 0 0 0 0 0 0 0 0 0 0 0 0
0 0 0 0 0 0 -0 -0 -0 -0 -0 -0 0 0 0 0 0 0 0 0 0 0 0 0 0 0 0 0 0 0 0 0 0 0 0 0 0 0 0 0 0 0 0
0 0 0 0 -0 -0 -0 -0 -0 -0 -0 -0 0 0 0 0 0 0 0 0 0 0 0 0 0 0 0 0 0 0 0 0 0 0 0 0 0 0 0 0 0 0 0
0 0 0 0 -0 -0 -0 -0 -0 -0 -0 -0 0 0 0 0 0 0 0 0 0 0 0 0 0 0 0 0 0 0 0 0 0 0 0 0 0 0 0 0 0 0 0
0 0 0 -0 -0 -0 -0 -0 -0 -0 0 0 0 0 0 0 0 0 0 0 0 0 0 0 0 0 0 0 0 0 0 0 0 0 0 0 0 0 0 0 0 0 0
0 0 0 -0 -0 -0 -0 -0 0 0 0 0 0 0 0 0 0 0 0 0 0 0 0 0 0 0 0 0 0 0 0 0 0 0 0 0 0 0 0 0 0 0 0
0 0 -0 -0 -0 -0 0 0 0 0 0 0 0 0 0 0 0 0 0 0 0 0 0 0 0 0 0 0 0 0 0 0 0 0 0 0 0 0 0 0 0 0 0
0 0 -0 -0 -0 -0 0 0 0 0 0 0 0 0 0 0 0 0 0 0 0 0 0 0 0 0 0 1 1 0 0 0 0 0 0 0 0 0 0 0 0 0 0
0 -0 -0 -0 -0 0 0 0 0 0 0 0 0 0 0 0 0 0 0 0 0 0 0 0 0 0 0 0 0 0 0 0 0 0 0 0 0 0 0 0 0 0 0
0 -0 -0 -0 0 0 0 0 0 0 0 0 0 0 0 0 0 0 0 0 0 0 0 0 0 0 0 0 0 0 0 0 0 0 0 0 0 0 0 0 0 0 0
0 -0 -0 0 0 0 0 0 0 0 0 0 0 0 0 0 0 0 0 0 0 0 0 0 0 0 0 0 0 0 0 0 0 0 0 0 0 0 0 0 0 0 0
0 0 0 0 0 0 0 0 0 0 0 0 0 0 0 0 0 0 0 0 0 0 0 0 0 0 0 0 1 0 0 0 0 0 0 0 0 0 0 0 0 0 0
0 0 0 0 0 0 0 0 0 0 0 0 0 0 0 0 0 0 0 0 0 0 0 0 0 0 0 0 0 0 0 0 0 0 0 0 0 0 0 0 0 0 0
0 0 0 0 0 0 0 0 0 0 0 0 0 0 0 0 0 0 0 0 0 0 0 0 0 0 0 0 0 1 0 0 0 0 0 0 0 0 0 0 0 0 0
Wind_Speed_500mb
18 17 22 19 12 7 10 12 11 20 21 21 21 19 19 19 19 19 20 21 21 21 22 24 25 26 22 21 19 16 18 16 15 13 8 8 3 17 37 41 36 32 28
21 18 15 10 18 15 14 17 16 15 22 25 24 23 23 22 23 24 27 27 28 27 27 28 27 27 24 22 23 22 23 24 22 19 13 8 6 27 42 39 34 28 27
13 17 15 13 6 13 9 19 20 21 22 23 26 28 27 27 27 27 29 31 32 32 30 30 32 31 29 28 29 28 25 24 19 18 17 15 16 32 37 35 29 28 28
16 19 20 21 16 14 10 16 25 24 25 26 26 28 30 30 27 26 28 30 34 34 33 33 32 32 31 32 33 29 27 23 21 22 19 18 29 36 34 33 27 27 30
16 20 22 24 23 20 23 11 18 28 30 30 29 27 29 30 31 27 28 30 34 35 36 34 33 32 31 32 33 31 29 24 25 19 20 22 34 40 35 30 27 29 31
16 21 23 23 26 28 29 27 20 15 31 33 34 35 32 30 30 30 28 31 35 37 38 38 35 30 27 23 24 30 31 27 27 21 19 29 39 41 36 28 30 30 29
20 23 26 31 32 31 34 34 35 26 28 30 34 39 39 37 37 35 33 35 39 40 41 39 37 31 26 22 23 26 27 23 24 18 11 31 45 39 37 28 29 30 31
28 32 33 35 39 41 40 39 40 42 38 32 40 38 42 42 43 43 41 41 42 44 46 43 41 36 30 29 26 28 29 21 21 18 17 36 46 36 35 29 28 31 32
30 36 44 46 43 43 44 44 43 45 45 46 41 42 40 51 47 48 47 47 46 48 48 49 46 42 37 34 32 34 32 27 25 21 20 40 50 38 32 34 31 34 33
36 39 42 45 45 42 42 43 45 46 48 52 50 48 46 49 54 53 53 53 53 52 52 52 52 48 45 42 39 37 38 35 32 28 23 38 56 44 33 41 38 33 37
31 36 36 33 35 41 45 44 47 47 48 50 55 53 52 52 52 60 60 59 58 57 56 57 56 54 50 49 45 40 43 44 39 37 30 39 58 59 42 38 43 40 37
28 28 25 31 42 51 58 61 60 58 55 55 54 56 60 55 54 54 63 66 64 61 58 58 59 57 55 53 52 46 49 49 46 42 36 40 49 61 58 52 49 46 42
30 28 30 41 54 66 72 74 69 66 66 61 58 60 59 63 61 59 57 62 70 65 63 61 62 62 63 61 59 58 55 55 51 46 41 45 45 55 61 60 56 53 51
29 31 36 48 65 77 85 88 82 74 69 67 62 60 62 63 65 66 64 60 58 64 67 67 66 68 69 68 66 65 58 59 56 50 47 50 53 58 58 56 53 50 51
32 37 43 56 72 84 94 93 87 84 76 71 69 62 60 64 67 67 69 66 63 46 79 71 73 72 74 74 73 70 65 64 62 56 52 50 52 57 58 51 52 47 52
37 43 51 68 85 98 98 90 85 83 82 77 70 67 61 62 67 69 71 71 70 64 69 68 80 82 80 79 80 77 73 69 70 63 56 54 55 60 60 57 53 55 53
40 49 62 81 92 92 89 87 84 83 79 78 74 66 66 61 63 68 73 76 73 72 72 71 54 80 87 87 88 84 78 75 76 72 62 59 60 63 67 65 59 58 61
42 56 69 79 85 86 87 87 86 81 77 75 73 66 62 64 61 64 72 77 78 73 73 79 81 50 81 96 96 91 85 81 80 78 71 63 62 68 67 71 67 61 60
49 64 75 80 82 81 81 84 85 84 79 71 69 68 60 62 62 62 67 75 74 77 76 76 81 74 72 77 99 90 87 89 86 82 79 70 65 61 67 71 73 68 62
55 67 75 78 79 80 80 81 79 79 75 70 67 64 60 58 59 62 65 70 72 74 80 77 76 82 70 64 87 81 99 103 91 85 81 74 68 62 65 72 78 75 68
61 71 78 81 79 76 77 79 78 76 70 66 68 65 58 57 55 59 64 64 71 74 78 79 77 77 75 71 44 92 95 104 93 91 85 79 73 65 62 65 70 73 69
66 73 75 79 78 76 75 73 71 72 71 69 66 70 60 53 52 54 57 62 65 73 75 79 77 76 68 59 82 56 25 54 87 94 91 82 81 72 65 62 65 72 70
63 65 69 73 75 74 71 71 68 67 69 65 64 67 63 56 54 56 56 57 59 66 74 76 77 76 76 66 67 72 21 22 39 59 66 70 82 79 70 68 65 66 68
57 61 64 71 75 73 70 67 64 61 67 67 64 65 65 61 59 55 54 54 61 64 72 75 75 77 76 69 64 85 78 53 39 29 70 61 65 84 73 70 79 73 71
56 65 66 71 76 74 69 62 60 62 58 62 64 61 61 66 61 51 52 61 67 69 67 71 72 76 78 79 67 75 87 60 61 50 41 64 71 80 91 87 86 78 75
60 66 67 71 76 76 69 60 56 52 56 58 57 60 64 63 59 53 54 57 57 65 70 67 69 74 75 77 81 61 83 80 59 62 51 54 65 85 107 109 94 81 79
Wind_Direction_500mb
14 359 343 314 314 277 239 206 237 248 232 229 233 236 236 241 240 239 237 229 225 224 211 216 209 205 209 213 217 224 238 243 256 267 271 285 326 147 139 137 137 140 144
10 5 350 335 289 308 253 221 207 224 259 254 248 241 242 244 249 252 248 239 234 230 224 221 222 215 216 233 246 243 249 254 263 272 255 251 160 150 144 141 143 143 149
6 8 354 349 289 256 260 248 244 229 231 244 254 254 252 254 256 255 251 241 234 230 226 229 228 232 241 246 248 244 247 261 252 255 254 240 180 162 156 153 150 150 154
2 0 1 353 340 302 306 250 251 254 250 245 245 254 260 260 257 259 253 242 234 231 229 234 238 244 249 255 251 241 243 248 248 251 250 231 183 173 170 165 159 163 166
336 343 349 351 346 333 322 310 260 254 257 259 251 245 251 259 264 260 254 243 233 231 232 233 235 240 248 252 246 232 233 232 248 233 229 206 185 178 179 176 172 172 174
329 331 332 331 332 335 333 322 311 279 248 250 258 255 246 247 255 261 258 248 238 233 234 235 231 239 248 242 231 226 227 230 230 240 245 193 183 180 185 184 183 181 182
339 334 328 326 325 319 317 317 316 312 279 272 251 253 256 245 239 245 249 252 245 243 239 235 235 236 236 224 216 221 215 205 214 227 218 191 175 184 186 193 196 191 189
329 329 328 324 320 317 314 307 301 301 300 287 271 258 252 251 246 240 238 243 248 246 245 242 238 241 232 221 210 193 190 204 223 248 235 193 181 185 194 196 198 193 191
322 320 318 318 317 313 311 308 301 296 290 289 285 273 259 252 251 245 243 240 244 245 246 245 242 242 237 226 216 203 208 215 230 241 228 197 186 191 189 193 207 204 198
317 316 316 317 322 322 315 310 305 300 294 287 282 279 273 259 252 250 246 245 243 245 243 245 244 242 241 233 225 221 222 221 232 238 241 205 193 197 184 200 210 210 211
312 318 325 332 335 332 328 321 311 302 295 290 285 282 274 270 261 251 247 245 243 243 245 241 242 241 240 239 231 227 229 228 233 241 242 213 203 204 203 203 208 213 217
320 328 341 342 337 331 326 320 314 308 302 295 289 282 278 271 264 260 250 244 244 243 243 242 242 240 239 237 231 226 230 231 232 244 243 216 216 213 214 219 218 221 221
327 331 332 332 333 331 329 325 316 309 303 299 292 284 278 272 268 262 258 247 243 242 244 241 240 237 235 235 230 228 229 228 233 239 239 228 227 219 218 222 227 229 230
312 314 310 318 325 326 326 323 317 311 306 300 293 286 279 272 266 265 260 251 247 242 245 243 242 240 236 234 233 231 233 231 232 236 237 235 237 228 225 226 226 230 232
307 308 309 316 322 322 320 319 314 311 307 302 296 289 280 272 266 261 260 258 249 240 239 245 241 241 240 236 234 234 233 234 234 237 238 239 232 225 231 232 224 224 225
299 303 311 318 321 319 317 314 311 308 306 302 296 291 283 274 267 262 258 255 253 250 235 242 244 238 239 239 236 233 233 234 234 235 236 235 231 228 233 235 226 224 227
297 309 315 319 320 318 314 311 308 306 302 299 296 291 284 277 269 263 260 256 251 250 250 241 253 236 236 236 238 235 233 233 233 234 234 232 232 233 235 235 234 229 232
306 312 318 318 317 315 312 311 308 304 300 296 293 289 284 280 274 266 260 257 255 251 253 248 246 259 234 237 235 233 233 233 233 233 234 233 232 234 236 235 234 235 234
312 318 320 318 319 316 312 309 306 303 300 296 289 287 283 279 278 273 263 258 257 254 249 249 246 245 242 229 233 237 236 233 232 232 233 233 233 236 236 234 235 236 236
316 321 320 322 322 318 315 310 304 298 295 296 293 287 285 277 274 276 272 262 256 254 250 247 247 244 245 236 237 234 243 236 232 231 233 234 235 236 236 234 237 237 235
320 324 328 328 324 321 318 313 307 303 300 297 294 291 284 279 274 276 276 269 258 253 251 246 246 248 251 236 244 218 229 237 239 237 233 233 234 234 235 235 234 232 236
326 329 331 328 324 323 319 313 306 303 299 297 293 292 289 282 275 274 277 274 260 256 251 247 242 243 244 235 236 248 209 206 235 238 241 229 232 233 235 235 236 235 236
327 330 328 329 326 323 319 313 307 299 295 294 292 291 291 287 279 275 275 272 263 253 254 248 241 239 236 234 237 216 194 204 225 231 227 230 236 227 233 237 238 236 236
325 329 323 328 327 324 319 312 303 297 290 293 295 295 293 288 284 280 275 273 266 251 250 248 241 237 233 230 234 223 223 224 199 204 224 224 229 230 234 241 239 238 239
324 324 325 327 326 323 319 314 303 294 291 292 294 293 288 290 286 282 282 284 267 250 245 245 240 235 232 231 231 220 225 215 210 209 204 216 226 234 240 250 243 241 243
320 322 324 325 327 325 320 315 305 294 286 288 287 287 289 292 290 286 279 280 266 247 240 241 237 233 234 229 227 232 224 222 228 218 212 229 233 238 237 238 239 239 242
Wind_Speed_850mb
18 17 22 19 12 7 10 12 11 20 21 21 21 19 19 19 19 19 20 21 21 21 22 24 25 26 22 21 19 16 18 16 15 13 8 8 3 17 37 41 36 32 28
21 18 15 10 18 15 14 17 16 15 22 25 24 23 23 22 23 24 27 27 28 27 27 28 27 27 24 22 23 22 23 24 22 19 13 8 6 27 42 39 34 28 27
13 17 15 13 6 13 9 19 20 21 22 23 26 28 27 27 27 27 29 31 32 32 30 30 32 31 29 28 29 28 25 24 19 18 17 15 16 32 37 35 29 28 28
16 19 20 21 16 14 10 16 25 24 25 26 26 28 30 30 27 26 28 30 34 34 33 33 32 32 31 32 33 29 27 23 21 22 19 18 29 36 34 33 27 27 30
16 20 22 24 23 20 23 11 18 28 30 30 29 27 29 30 31 27 28 30 34 35 36 34 33 32 31 32 33 31 29 24 25 19 20 22 34 40 35 30 27 29 31
16 21 23 23 26 28 29 27 20 15 31 33 34 35 32 30 30 30 28 31 35 37 38 38 35 30 27 23 24 30 31 27 27 21 19 29 39 41 36 28 30 30 29
20 23 26 31 32 31 34 34 35 26 28 30 34 39 39 37 37 35 33 35 39 40 41 39 37 31 26 22 23 26 27 23 24 18 11 31 45 39 37 28 29 30 31
28 32 33 35 39 41 40 39 40 42 38 32 40 38 42 42 43 43 41 41 42 44 46 43 41 36 30 29 26 28 29 21 21 18 17 36 46 36 35 29 28 31 32
30 36 44 46 43 43 44 44 43 45 45 46 41 42 40 51 47 48 47 47 46 48 48 49 46 42 37 34 32 34 32 27 25 21 20 40 50 38 32 34 31 34 33
36 39 42 45 45 42 42 43 45 46 48 52 50 48 46 49 54 53 53 53 53 52 52 52 52 48 45 42 39 37 38 35 32 28 23 38 56 44 33 41 38 33 37
31 36 36 33 35 41 45 44 47 47 48 50 55 53 52 52 52 60 60 59 58 57 56 57 56 54 50 49 45 40 43 44 39 37 30 39 58 59 42 38 43 40 37
28 28 25 31 42 51 58 61 60 58 55 55 54 56 60 55 54 54 63 66 64 61 58 58 59 57 55 53 52 46 49 49 46 42 36 40 49 61 58 52 49 46 42
30 28 30 41 54 66 72 74 69 66 66 61 58 60 59 63 61 59 57 62 70 65 63 61 62 62 63 61 59 58 55 55 51 46 41 45 45 55 61 60 56 53 51
29 31 36 48 65 77 85 88 82 74 69 67 62 60 62 63 65 66 64 60 58 64 67 67 66 68 69 68 66 65 58 59 56 50 47 50 53 58 58 56 53 50 51
32 37 43 56 72 84 94 93 87 84 76 71 69 62 60 64 67 67 69 66 63 46 79 71 73 72 74 74 73 70 65 64 62 56 52 50 52 57 58 51 52 47 52
37 43 51 68 85 98 98 90 85 83 82 77 70 67 61 62 67 69 71 71 70 64 69 68 80 82 80 79 80 77 73 69 70 63 56 54 55 60 60 57 53 55 53
40 49 62 81 92 92 89 87 84 83 79 78 74 66 66 61 63 68 73 76 73 72 72 71 54 80 87 87 88 84 78 75 76 72 62 59 60 63 67 65 59 58 61
42 56 69 79 85 86 87 87 86 81 77 75 73 66 62 64 61 64 72 77 78 73 73 79 81 50 81 96 96 91 85 81 80 78 71 63 62 68 67 71 67 61 60
49 64 75 80 82 81 81 84 85 84 79 71 69 68 60 62 62 62 67 75 74 77 76 76 81 74 72 77 99 90 87 89 86 82 79 70 65 61 67 71 73 68 62
55 67 75 78 79 80 80 81 79 79 75 70 67 64 60 58 59 62 65 70 72 74 80 77 76 82 70 64 87 81 99 103 91 85 81 74 68 62 65 72 78 75 68
61 71 78 81 79 76 77 79 78 76 70 66 68 65 58 57 55 59 64 64 71 74 78 79 77 77 75 71 44 92 95 104 93 91 85 79 73 65 62 65 70 73 69
66 73 75 79 78 76 75 73 71 72 71 69 66 70 60 53 52 54 57 62 65 73 75 79 77 76 68 59 82 56 25 54 87 94 91 82 81 72 65 62 65 72 70
63 65 69 73 75 74 71 71 68 67 69 65 64 67 63 56 54 56 56 57 59 66 74 76 77 76 76 66 67 72 21 22 39 59 66 70 82 79 70 68 65 66 68
57 61 64 71 75 73 70 67 64 61 67 67 64 65 65 61 59 55 54 54 61 64 72 75 75 77 76 69 64 85 78 53 39 29 70 61 65 84 73 70 79 73 71
56 65 66 71 76 74 69 62 60 62 58 62 64 61 61 66 61 51 52 61 67 69 67 71 72 76 78 79 67 75 87 60 61 50 41 64 71 80 91 87 86 78 75
60 66 67 71 76 76 69 60 56 52 56 58 57 60 64 63 59 53 54 57 57 65 70 67 69 74 75 77 81 61 83 80 59 62 51 54 65 85 107 109 94 81 79
Wind_Direction_850mb
14 359 343 314 314 277 239 206 237 248 232 229 233 236 236 241 240 239 237 229 225 224 211 216 209 205 209 213 217 224 238 243 256 267 271 285 326 147 139 137 137 140 144
10 5 350 335 289 308 253 221 207 224 259 254 248 241 242 244 249 252 248 239 234 230 224 221 222 215 216 233 246 243 249 254 263 272 255 251 160 150 144 141 143 143 149
6 8 354 349 289 256 260 248 244 229 231 244 254 254 252 254 256 255 251 241 234 230 226 229 228 232 241 246 248 244 247 261 252 255 254 240 180 162 156 153 150 150 154
2 0 1 353 340 302 306 250 251 254 250 245 245 254 260 260 257 259 253 242 234 231 229 234 238 244 249 255 251 241 243 248 248 251 250 231 183 173 170 165 159 163 166
336 343 349 351 346 333 322 310 260 254 257 259 251 245 251 259 264 260 254 243 233 231 232 233 235 240 248 252 246 232 233 232 248 233 229 206 185 178 179 176 172 172 174
329 331 332 331 332 335 333 322 311 279 248 250 258 255 246 247 255 261 258 248 238 233 234 235 231 239 248 242 231 226 227 230 230 240 245 193 183 180 185 184 183 181 182
339 334 328 326 325 319 317 317 316 312 279 272 251 253 256 245 239 245 249 252 245 243 239 235 235 236 236 224 216 221 215 205 214 227 218 191 175 184 186 193 196 191 189
329 329 328 324 320 317 314 307 301 301 300 287 271 258 252 251 246 240 238 243 248 246 245 242 238 241 232 221 210 193 190 204 223 248 235 193 181 185 194 196 198 193 191
322 320 318 318 317 313 311 308 301 296 290 289 285 273 259 252 251 245 243 240 244 245 246 245 242 242 237 226 216 203 208 215 230 241 228 197 186 191 189 193 207 204 198
317 316 316 317 322 322 315 310 305 300 294 287 282 279 273 259 252 250 246 245 243 245 243 245 244 242 241 233 225 221 222 221 232 238 241 205 193 197 184 200 210 210 211
312 318 325 332 335 332 328 321 311 302 295 290 285 282 274 270 261 251 247 245 243 243 245 241 242 241 240 239 231 227 229 228 233 241 242 213 203 204 203 203 208 213 217
320 328 341 342 337 331 326 320 314 308 302 295 289 282 278 271 264 260 250 244 244 243 243 242 242 240 239 237 231 226 230 231 232 244 243 216 216 213 214 219 218 221 221
327 331 332 332 333 331 329 325 316 309 303 299 292 284 278 272 268 262 258 247 243 242 244 241 240 237 235 235 230 228 229 228 233 239 239 228 227 219 218 222 227 229 230
312 314 310 318 325 326 326 323 317 311 306 300 293 286 279 272 266 265 260 251 247 242 245 243 242 240 236 234 233 231 233 231 232 236 237 235 237 228 225 226 226 230 232
307 308 309 316 322 322 320 319 314 311 307 302 296 289 280 272 266 261 260 258 249 240 239 245 241 241 240 236 234 234 233 234 234 237 238 239 232 225 231 232 224 224 225
299 303 311 318 321 319 317 314 311 308 306 302 296 291 283 274 267 262 258 255 253 250 235 242 244 238 239 239 236 233 233 234 234 235 236 235 231 228 233 235 226 224 227
297 309 315 319 320 318 314 311 308 306 302 299 296 291 284 277 269 263 260 256 251 250 250 241 253 236 236 236 238 235 233 233 233 234 234 232 232 233 235 235 234 229 232
306 312 318 318 317 315 312 311 308 304 300 296 293 289 284 280 274 266 260 257 255 251 253 248 246 259 234 237 235 233 233 233 233 233 234 233 232 234 236 235 234 235 234
312 318 320 318 319 316 312 309 306 303 300 296 289 287 283 279 278 273 263 258 257 254 249 249 246 245 242 229 233 237 236 233 232 232 233 233 233 236 236 234 235 236 236
316 321 320 322 322 318 315 310 304 298 295 296 293 287 285 277 274 276 272 262 256 254 250 247 247 244 245 236 237 234 243 236 232 231 233 234 235 236 236 234 237 237 235
320 324 328 328 324 321 318 313 307 303 300 297 294 291 284 279 274 276 276 269 258 253 251 246 246 248 251 236 244 218 229 237 239 237 233 233 234 234 235 235 234 232 236
326 329 331 328 324 323 319 313 306 303 299 297 293 292 289 282 275 274 277 274 260 256 251 247 242 243 244 235 236 248 209 206 235 238 241 229 232 233 235 235 236 235 236
327 330 328 329 326 323 319 313 307 299 295 294 292 291 291 287 279 275 275 272 263 253 254 248 241 239 236 234 237 216 194 204 225 231 227 230 236 227 233 237 238 236 236
325 329 323 328 327 324 319 312 303 297 290 293 295 295 293 288 284 280 275 273 266 251 250 248 241 237 233 230 234 223 223 224 199 204 224 224 229 230 234 241 239 238 239
324 324 325 327 326 323 319 314 303 294 291 292 294 293 288 290 286 282 282 284 267 250 245 245 240 235 232 231 231 220 225 215 210 209 204 216 226 234 240 250 243 241 243
320 322 324 325 327 325 320 315 305 294 286 288 287 287 289 292 290 286 279 280 266 247 240 241 237 233 234 229 227 232 224 222 228 218 212 229 233 238 237 238 239 239 242